Printer-friendly version

IAU Minor Planet Center

Minor Planet Center

MPEC 2003-T39 : COMET P/2002 T5 (LINEAR)

The following Minor Planet Electronic Circular may be linked-to from your own Web pages, but must not otherwise be redistributed electronically.


Read MPEC 2003-T38 Read MPEC 2003-T40


M.P.E.C. 2003-T39                                Issued 2003 Oct. 7, 20:25 UT

     The Minor Planet Electronic Circulars contain information on unusual
         minor planets and routine data on comets.  They are published
   on behalf of Commission 20 of the International Astronomical Union by the
          Minor Planet Center, Smithsonian Astrophysical Observatory,
                          Cambridge, MA 02138, U.S.A.

         Supported in part by the Steven and Michele Kirsch Foundation
             Prepared using the Tamkin Foundation Computer Network

                              MPC@CFA.HARVARD.EDU
          URL http://cfa-www.harvard.edu/iau/mpc.html  ISSN 1523-6714

                           COMET P/2002 T5 (LINEAR)

Observations:
    PK02T050  C2003 09 30.76497 08 02 55.03 +11 17 01.7                      349
    PK02T050  C2003 09 30.77587 08 02 55.53 +11 17 01.9                      349
    PK02T050  C2003 09 30.77878 08 02 55.72 +11 17 01.5                      349
    PK02T050  C2003 09 30.78495 08 02 56.01 +11 17 01.2          17.3 T      349
    PK02T050  C2003 10 03.31968 08 05 00.81 +11 16 37.1          17.2 T      785
    PK02T050  C2003 10 03.32814 08 05 01.16 +11 16 37.5          17.2 T      785

Observer details:
349 Ageo.  Observer K. Kadota.  0.25-m f/5.0 reflector + CCD.
785 Fitz-Randolph Observatory, Princeton.  Observer J. Maffei.  0.91-m f/13.6
    Cassegrain + CCD.

Orbital elements:
    P/2002 T5 (LINEAR)
Epoch 2003 June 10.0 TT = JDT 2452800.5
T 2003 June 27.86256 TT                                 MPC
q   3.9340958            (2000.0)            P               Q
n   0.05339404     Peri.  326.76002     -0.06661656     -0.90078437
a   6.9845888      Node   123.33128     +0.99023480     -0.11247259
e   0.4367463      Incl.   30.90473     +0.12246332     +0.41944896
P  18.46
Residuals in seconds of arc
021005 704  0.3+  0.7+    021126 704  0.3-  0.2+    030114 644  0.4+  0.3-
021005 704 (2.4+  0.2+)   021128 360  0.2+  0.3-    030114 644  0.4+  0.3-
021005 704  0.1-  0.4+    021128 360  0.1+  0.6-    030116 204  0.6+  0.8+
021005 704  0.3+  0.9-    021128 355  0.5-  0.4-    030116 204  0.6+  0.5+
021006 704  0.5+  1.0+    021128 355  0.2+  0.8-    030116 204  0.1+  0.5+
021006 704  1.0+  0.5+    021128 355  0.0   1.0-    030116 204  0.3+  0.1-
021006 704  0.7+  0.5+    021129 H43 (3.9+  4.1-)   030117 246  0.0   0.2+
021006 704  0.4+  0.3-    021129 H43  0.5+  0.6-    030117 246  0.0   0.3+
021006 704  0.3+  1.2-    021129 213  0.2-  0.9-    030117 246  0.0   0.5+
021011 704  0.5+  1.2+    021129 213  0.9-  0.5+    030117 246  0.0   0.1-
021011 704  1.4+  0.3+    021129 170  0.0   0.2-    030117 246  0.5+  0.1+
021011 704  0.5+  0.1+    021129 170  1.6-  0.4-    030124 644  0.1-  0.1+
021011 704  1.0+  0.1-    021129 170  0.4+  0.2-    030124 644  0.0   0.2+
021011 704  0.3-  0.9-    021130 704  0.2+  0.1+    030124 644  0.0   0.3+
021012 704  1.9+  1.1+    021130 704  0.5+  0.0     030124 J87  0.5+  1.0+
021012 704  0.9+  0.1-    021130 704  0.7+  0.1-    030124 A03  0.1+  1.0-
021012 704  0.0   0.1+    021130 704  0.5+  0.5-    030124 A03  1.0-  0.2+
021018 850  0.6-  0.1-    021130 704  0.1+  0.1+    030124 J87  0.3+  0.1+
021018 850  0.0   0.4-    021130 704  0.4+  0.4+    030124 232  0.2-  0.4-
021018 850  0.4-  0.4+    021130 704  0.2+  0.3+    030124 232  0.0   0.6-
021018 850  0.1+  0.7+    021130 704  0.1+  0.8+    030124 232  0.3+  0.6-
021018 734  0.0   0.2+    021130 704  1.1-  0.6+    030125 587  0.1-  0.4+
021018 734  0.3+  0.4+    021130 704  0.8-  0.9+    030125 587  0.2+  0.1+
021018 734  0.1+  0.3+    021201 704  0.6+  0.3+    030125 587  0.0   0.4+
021018 413  0.6+  0.2+    021201 704  0.4+  0.7+    030125 213  1.4+  1.2+
021018 413  0.7+  0.2+    021201 704  0.3-  0.2+    030125 213  0.5+  0.0
021018 413  0.7+  0.0     021201 704  0.2+  0.1+    030125 213  0.3+  0.3+
021019 J95  0.3-  0.2+    021201 704  0.5-  0.4-    030129 704  0.5+  0.5-
021019 J95  0.5+  0.8-    021206 H43  0.5+  1.6+    030129 704  1.0+  0.2+
021019 J95  0.4-  0.8-    021206 232  0.2-  0.2+    030129 704  0.5+  0.4-
021020 176  0.2+  0.4+    021206 232  0.1-  0.2+    030129 704  0.9+  0.1-
021020 176  0.3+  0.4+    021206 232  0.3-  0.3-    030129 704  0.1+  1.3+
021020 176  0.2+  0.2+    021207 H43  0.8-  1.4+    030130 608  0.1-  0.3+
021020 176  0.1+  0.1+    021210 340  1.3+  0.2-    030130 608  0.2-  0.3+
021020 176  0.1+  0.1+    021210 340  0.5+  0.8-    030130 608  0.3-  0.3+
021020 620  0.3+  0.1-    021210 340  1.8+  0.9-    030131 232  1.9+  1.9+
021020 620  0.9+  0.3-    021210 340  1.3+  0.8-    030131 232 (0.4+  4.5+)
021020 620  0.1-  1.0-    021210 340  0.7+  0.7-    030201 J87  0.7+  0.5+
021020 620  0.2-  0.2+    021212 608  1.2-  0.4+    030201 J87  0.7+  0.7+
021020 649  0.4+  0.2+    021212 608  0.4-  0.6+    030201 215  0.2+  0.6+
021020 670  1.6+  0.5+    021212 608  0.9-  0.5+    030201 215  0.5+  0.7+
021020 670  1.1+  0.5-    021213 673  0.3+  0.3-    030201 215  0.4+  0.3+
021020 649  0.6+  0.1+    021213 673  0.4+  0.3-    030201 J87  1.7+  0.6+
021020 649  0.4+  0.4+    021213 673  0.2+  0.2-    030201 048  1.4-  0.4-
021022 448  0.4-  0.3-    021213 673  0.0   0.1+    030201 048  2.0-  0.6-
021022 448  0.3+  0.4-    021214 340  0.9-  0.6-    030201 048  1.1-  0.2-
021022 448  0.4+  0.1-    021214 340 (2.1-  2.7+)   030201 048  0.9-  0.3+
021025 213  0.0   0.3-    021214 340 (2.2-  0.7+)   030201 A02  0.1-  0.4+
021025 213  0.2+  0.5-    021214 340  0.4+  0.1+    030201 A02  0.0   0.4+
021025 213  0.1-  0.7-    021222 340  0.4+  1.0+    030201 A02  0.3+  0.6+
021025 213  0.2-  0.4-    021222 340  1.4+  0.2+    030202 213  1.8-  0.5-
021026 170  0.4-  0.6+    021222 340  0.5-  1.4-    030202 213 (2.5-  0.9-)
021026 170  0.2+  0.1-    021224 340  0.1-  1.1-    030203 360  0.2-  0.3-
021028 J95  0.3-  0.5+    021224 340  1.0+  0.3+    030203 360  0.2-  0.1-
021028 J95  0.2-  0.4+    021224 340  0.9-  1.0+    030205 235  0.9+  1.5+
021028 704  0.8+  0.1-    021226 340  0.2-  0.2-    030221 048  0.2+  1.4-
021028 704  0.7-  0.1+    021226 340  1.2-  1.8-    030221 048  0.9+  0.6-
021028 704  0.1+  0.7-    021226 340  0.6+  0.4+    030221 048  0.0   1.2-
021028 704  0.3+  0.4-    021226 340  0.1-  1.3-    030221 048  0.8-  1.3-
021028 704  1.1-  1.3-    021227 360  0.0   0.4-    030221 048  0.9-  0.3-
021029 349  1.6-  0.3+    021227 360  0.2+  0.5-    030222 048  1.0+  0.1-
021029 349  0.7-  0.7-    021228 349  0.5-  0.3-    030222 048  0.6+  0.5+
021029 349  1.2-  0.7-    021228 349  0.5-  0.5-    030222 048  0.3+  0.3+
021029 349  1.9-  0.2-    021228 349  0.1-  0.2-    030222 048  0.0   0.1-
021029 349  0.8-  1.1+    021228 349  0.0   0.5-    030222 048  0.1+  0.5-
021103 349  0.0   0.3+    021228 A02  0.8-  0.0     030222 048  0.5-  0.1+
021103 349  0.2+  0.0     021228 A02  0.3-  0.2+    030222 048  0.2+  0.5-
021103 349  0.4+  0.2-    021228 A02  0.7-  0.1+    030222 048  0.1+  0.3-
021103 349  0.4+  0.0     021229 340  0.3-  0.4-    030222 048  0.1+  0.7-
021104 349  0.3+  0.4+    021229 340  0.6-  0.9-    030222 048  1.0-  0.8-
021104 349  0.8-  0.5+    021229 340  0.9-  0.1+    030223 048  0.3+  0.5-
021104 349  0.9-  0.6+    021229 340  0.5+  0.2-    030223 048  0.4+  0.7-
021104 349  0.7-  1.1-    030102 349  0.2-  1.0-    030223 048  0.4+  0.9-
021105 204  0.0   0.2+    030102 349  0.3+  0.9-    030223 048  1.0-  0.1-
021105 204  0.5-  0.2+    030102 349  0.2+  0.7-    030223 048  0.2+  0.0
021105 204  0.5-  0.3+    030102 349  0.3+  0.6-    030223 048  0.5-  0.2-
021105 204  0.4-  0.4+    030102 349  0.3-  0.4-    030223 048  0.3+  0.1+
021105 644  0.4+  0.2-    030103 704  0.0   0.3+    030223 048  0.4-  0.3+
021105 644  0.3-  0.7+    030103 704  0.8+  0.0     030223 048  1.3-  0.1-
021105 644  0.0   0.1+    030103 704  0.4+  0.9+    030223 048  0.9+  0.1-
021105 360  0.0   0.3+    030103 699  0.8-  0.6+    030228 349 (0.7+  2.1-)
021105 360  0.5-  0.4+    030103 699  1.6-  0.1+    030228 349  1.8+  0.8-
021111 670  0.6+  1.0+    030103 699  0.4-  0.1+    030228 349  0.3-  0.8-
021111 670  0.3+  1.4+    030103 699  0.6-  0.2+    030307 H43  1.0-  0.4+
021112 360  0.3+  0.5-    030103 232  0.2-  1.4+    030307 H43  0.6+  0.8-
021112 360  0.5+  0.6-    030103 232  0.3-  0.1+    030326 360  0.5+  0.3+
021112 246  0.2-  0.2-    030103 232  0.2+  0.1+    030326 360  0.4+  0.1+
021112 246  0.2-  0.4-    030104 348  0.0   0.8+    030913 349  1.6+  0.3-
021112 246  0.1-  0.1-    030104 348  1.0-  1.7+    030913 349  0.2+  0.7-
021112 246  0.0   0.2-    030104 A02  0.9-  0.8-    030913 349  0.6+  0.5+
021114 644  0.4-  0.1+    030104 A02  1.8-  0.8+    030913 349  0.8+  0.0
021114 644  0.4-  0.1+    030106 360  0.3+  0.3-    030919 048  1.2+  0.3+
021114 644  0.3-  0.0     030106 360  0.2+  0.0     030919 048  0.8+  0.2+
021115 699  0.9-  0.0     030106 340  1.2+  0.4-    030922 349  1.3-  0.1-
021115 699  1.2-  0.6+    030106 340  0.1-  0.7-    030922 349  0.9-  0.1-
021115 699  1.9-  0.1+    030108 360  0.1-  0.5-    030922 349  0.2-  0.1+
021115 699  1.1-  0.1-    030108 360  0.0   0.6-    030922 349  0.1-  0.3-
021116 699  1.1-  0.7+    030110 213  0.6+  0.1+    030924 785  1.8-  0.0
021116 699  1.0-  0.1-    030110 213  0.8-  1.2+    030924 785  0.5-  0.4+
021116 699  1.4-  0.0     030110 213 (2.0+  2.2+)   030924 785  1.0-  0.2-
021116 699  0.8+  0.3-    030111 349  0.7-  0.6-    030928 704  0.1-  0.9+
021116 170 (0.4-  2.6+)   030111 349  0.6+  0.8-    030928 704  0.8+  0.4+
021116 170  0.0   0.4+    030111 349  0.9+  0.4-    030928 704  0.4-  0.4+
021122 213  0.1-  0.6+    030111 E14  0.2-  0.0     030928 704  0.4+  0.5+
021122 213  0.2+  0.4-    030111 E14  0.2+  0.2+    030928 704  0.7-  0.2+
021124 699  0.8-  0.5+    030111 E14  0.1+  0.2+    030930 349  0.4+  0.1-
021124 699  0.3+  0.0     030113 448  0.1+  0.2+    030930 349  0.2-  0.2+
021124 699  0.8-  0.4+    030113 448  0.3+  0.1+    030930 349  0.5+  0.2-
021124 699  1.1-  0.1+    030113 448  0.6+  0.6+    030930 349  0.3+  0.4-
021126 704  0.7+  0.9-    030113 448  0.2+  0.2+    031003 785 (1.7+  2.5-)
021126 704  0.5+  0.9-    030114 644  0.0   0.0     031003 785 (0.9+  2.0-)

Brian G. Marsden             (C) Copyright 2003 MPC           M.P.E.C. 2003-T39

Read MPEC 2003-T38 Read MPEC 2003-T40


Our Web policy. Index to the CBAT/MPC/ICQ pages.


Valid HTML 4.01!